This is the latest recevied weather packets stored in our database for station/object N8SHA. If no packets are shown the sender has not sent any weather packets the latest 10 day(s).
| Time | Temp. | Humidity | Pressure | Rain* | Wind** | Luminosity | Snow |
|---|---|---|---|---|---|---|---|
| 1778026303 | 10.56° C | 48% | 1008 hPa | 0 mm | - | 4 W/m² | - |
| 1778026000 | 10.56° C | 49% | 1007.8 hPa | 0 mm | - | 5 W/m² | - |
| 1778025697 | 10.56° C | 49% | 1007.9 hPa | 0 mm | - | 7 W/m² | - |
| 1778025395 | 11.11° C | 48% | 1007.8 hPa | 0 mm | - | 10 W/m² | - |
| 1778025092 | 11.11° C | 47% | 1008 hPa | 0 mm | - | 11 W/m² | - |
| 1778024789 | 11.11° C | 46% | 1007.6 hPa | 0 mm | - | 14 W/m² | - |
| 1778024486 | 11.11° C | 46% | 1007.4 hPa | 0 mm | - | 13 W/m² | - |
| 1778024183 | 11.11° C | 46% | 1007.6 hPa | 0 mm | - | 14 W/m² | - |
| 1778023881 | 11.11° C | 47% | 1007.4 hPa | 0 mm | - | 20 W/m² | - |
| 1778023578 | 11.67° C | 45% | 1007.4 hPa | 0 mm | - | 20 W/m² | - |
| 1778023275 | 11.67° C | 43% | 1007.3 hPa | 0 mm | - | 24 W/m² | - |
| 1778022972 | 11.67° C | 44% | 1007.6 hPa | 0 mm | - | 36 W/m² | - |
| 1778022671 | 11.67° C | 44% | 1007.3 hPa | 0 mm | - | 50 W/m² | - |
| 1778022369 | 11.67° C | 45% | 1007.3 hPa | 0 mm | - | 47 W/m² | - |
| 1778022064 | 11.67° C | 44% | 1007.4 hPa | 0 mm | - | 46 W/m² | - |
| 1778021761 | 11.67° C | 45% | 1007.2 hPa | 0 mm | - | 77 W/m² | - |
| 1778021457 | 11.67° C | 44% | 1007.5 hPa | 0 mm | - | 73 W/m² | - |
| 1778021154 | 12.22° C | 43% | 1007.4 hPa | 0 mm | - | 65 W/m² | - |
| 1778020851 | 12.22° C | 43% | 1007.6 hPa | 0 mm | - | 72 W/m² | - |
| 1778020549 | 12.22° C | 45% | 1007.4 hPa | 0 mm | - | 77 W/m² | - |
| 1778020244 | 12.22° C | 47% | 1007.4 hPa | 0 mm | - | 82 W/m² | - |
| 1778019941 | 12.22° C | 45% | 1007.4 hPa | 0 mm | - | 76 W/m² | - |
| 1778019637 | 12.78° C | 45% | 1007.5 hPa | 0 mm | - | 92 W/m² | - |
| 1778019335 | 12.78° C | 45% | 1007.3 hPa | 0 mm | - | 92 W/m² | - |
| 1778019031 | 12.78° C | 46% | 1007.3 hPa | 0 mm | - | 100 W/m² | - |
* Rain latest hour (hover to see other rain measurements)
** Current wind speed in m/s (hover to see current wind gust speed)